| time (UTC) | temp C | wind direction | speed KPH | gust KPH | rain 1hr cm | rain 24hr cm | rain mn cm | humidity % | barometer mb |
| 20260504160401 | 24 | 315 | 1.6 | 3.2 | 0.00 | 0.18 | 0.00 | 98 | 1010.0 |
| 20260504160200 | 24 | 315 | 0.0 | 3.2 | 0.00 | 0.18 | 0.00 | 99 | 1010.1 |
| 20260504151001 | 24 | 315 | 1.6 | 3.2 | 0.00 | 0.18 | 0.18 | 98 | 1009.5 |
| 20260504150801 | 24 | 315 | 0.0 | 3.2 | 0.00 | 0.18 | 0.18 | 98 | 1009.7 |
| 20260504150601 | 24 | 315 | 0.0 | 3.2 | 0.00 | 0.18 | 0.18 | 98 | 1009.6 |
| 20260504150401 | 24 | 315 | 3.2 | 3.2 | 0.00 | 0.18 | 0.18 | 98 | 1009.5 |
| 20260504150201 | 24 | 315 | 1.6 | 3.2 | 0.00 | 0.18 | 0.18 | 98 | 1009.7 |
| 20260504141201 | 25 | 292 | 3.2 | 3.2 | 0.00 | 0.18 | 0.18 | 97 | 1009.5 |
| 20260504141001 | 25 | 292 | 1.6 | 3.2 | 0.00 | 0.18 | 0.18 | 97 | 1009.4 |
| 20260504140801 | 25 | 292 | 0.0 | 3.2 | 0.00 | 0.18 | 0.18 | 97 | 1009.2 |
| 20260504140602 | 25 | 292 | 0.0 | 3.2 | 0.00 | 0.18 | 0.18 | 97 | 1009.3 |
| 20260504140402 | 25 | 292 | 0.0 | 3.2 | 0.00 | 0.18 | 0.18 | 97 | 1009.2 |
| 20260504140201 | 25 | 292 | 0.0 | 3.2 | 0.00 | 0.18 | 0.18 | 97 | 1009.2 |
| 20260504130801 | 25 | 292 | 0.0 | 3.2 | 0.00 | 0.18 | 0.18 | 96 | 1008.8 |
| 20260504130601 | 25 | 292 | 0.0 | 3.2 | 0.00 | 0.18 | 0.18 | 96 | 1008.5 |
| 20260504130401 | 25 | 292 | 0.0 | 3.2 | 0.00 | 0.18 | 0.18 | 96 | 1008.6 |
| 20260504130202 | 25 | 292 | 0.0 | 3.2 | 0.00 | 0.18 | 0.18 | 96 | 1008.5 |
| 20260504120201 | 25 | 292 | 0.0 | 3.2 | 0.00 | 0.18 | 0.18 | 96 | 1007.8 |
| 20260504110602 | 26 | 292 | 3.2 | 3.2 | 0.00 | 0.18 | 0.18 | 92 | 1007.7 |
| 20260504110401 | 26 | 289 | 1.6 | 3.2 | 0.00 | 0.18 | 0.18 | 92 | 1007.6 |
| 20260504110201 | 26 | 280 | 0.0 | 3.2 | 0.00 | 0.18 | 0.18 | 92 | 1007.6 |
| 20260504100601 | 27 | 263 | 0.0 | 3.2 | 0.00 | 0.18 | 0.18 | 86 | 1007.2 |
| 20260504100401 | 27 | 260 | 0.0 | 3.2 | 0.00 | 0.18 | 0.18 | 87 | 1007.1 |
| 20260504100202 | 27 | 255 | 1.6 | 3.2 | 0.00 | 0.18 | 0.18 | 86 | 1007.2 |